WXM80 ListenWXM80 Stop

You find our weather info also at:

UK Metoffice

WeatherCloud

Weather Underground

Northeastern Weather Network

AWEKAS

Citizen Weather Observer Program (CWOP)

HAMweather, WeatherForYou, PWS Weather


Weather Underground History page Text

Daily Summary for March 27, 2016 Units:  English    Metric   Both
« Previous Day
Next Day »
Daily Weekly Monthly Yearly Custom
  High: Low: Average:
Temperature: 47.7 °F 37.5 °F 43 °F
Dew Point: 40.8 °F 34.5 °F 37.9 °F
Humidity: 91 % 73 % 82 %
Wind Speed: 8.7 mph 0.0 mph 2.9 mph
Wind Gust: 12.0 mph - -
Wind:- - ESE
Pressure: 30.41 in 30.15 in -
Precipitation: 0.00 in    
Historical Graphs
 
 
Tabular Data for March 27, 2016
Time Temperature Dew Point Pressure Wind Wind Speed Wind Gust Humidity Rainfall Rate (Hourly)
00:01 42.3 °F 37.8 °F 30.38 in East 2.0 mph 5.8 mph 84 % 0.00 in
00:06 42.4 °F 37.9 °F 30.38 in East 0.9 mph 3.5 mph 84 % 0.00 in
00:11 42.4 °F 37.9 °F 30.38 in East 1.2 mph 4.6 mph 84 % 0.00 in
00:16 42.4 °F 37.9 °F 30.38 in ESE 2.2 mph 3.5 mph 84 % 0.00 in
00:21 42.4 °F 37.6 °F 30.38 in ESE 0.6 mph 2.3 mph 83 % 0.00 in
00:26 42.4 °F 37.6 °F 30.37 in ESE 0.8 mph 2.0 mph 83 % 0.00 in
00:31 42.4 °F 37.6 °F 30.37 in Calm   1.2 mph 83 % 0.00 in
00:37 42.5 °F 37.7 °F 30.38 in ESE 0.1 mph 1.2 mph 83 % 0.00 in
00:42 42.5 °F 37.7 °F 30.37 in ESE 1.1 mph 3.5 mph 83 % 0.00 in
00:47 42.5 °F 37.7 °F 30.38 in Calm   1.2 mph 83 % 0.00 in
00:57 42.5 °F 37.7 °F 30.38 in ESE 0.6 mph 1.2 mph 83 % 0.00 in
01:02 42.5 °F 37.7 °F 30.38 in ESE 0.9 mph 3.5 mph 83 % 0.00 in
01:07 42.5 °F 37.7 °F 30.38 in ESE 0.2 mph 1.2 mph 83 % 0.00 in
01:12 42.5 °F 37.7 °F 30.38 in ESE 0.3 mph 2.3 mph 83 % 0.00 in
01:17 42.5 °F 37.7 °F 30.38 in Calm     83 % 0.00 in
01:22 42.5 °F 37.7 °F 30.38 in Calm     83 % 0.00 in
01:28 42.5 °F 37.7 °F 30.38 in ESE 0.3 mph 1.2 mph 83 % 0.00 in
01:33 42.5 °F 37.7 °F 30.38 in Calm   1.2 mph 83 % 0.00 in
01:38 42.5 °F 37.7 °F 30.38 in Calm     83 % 0.00 in
01:43 42.5 °F 37.7 °F 30.39 in ESE 0.1 mph 1.2 mph 83 % 0.00 in
01:48 42.5 °F 37.7 °F 30.38 in Calm     83 % 0.00 in
01:53 42.5 °F 37.7 °F 30.39 in ESE 0.1 mph 1.2 mph 83 % 0.00 in
01:58 42.5 °F 37.4 °F 30.38 in Calm     82 % 0.00 in
02:03 42.5 °F 37.4 °F 30.38 in Calm     82 % 0.00 in
02:08 42.5 °F 37.4 °F 30.39 in Calm     82 % 0.00 in
02:14 42.5 °F 37.4 °F 30.39 in Calm     82 % 0.00 in
02:19 42.5 °F 37.7 °F 30.38 in Calm   1.2 mph 83 % 0.00 in
02:24 42.5 °F 37.7 °F 30.38 in ESE 0.3 mph 1.2 mph 83 % 0.00 in
02:29 42.5 °F 37.7 °F 30.38 in SE 1.0 mph 3.5 mph 83 % 0.00 in
02:34 42.4 °F 37.3 °F 30.39 in SSE 1.3 mph 3.5 mph 82 % 0.00 in
02:44 42.5 °F 37.4 °F 30.39 in SSE 1.8 mph 3.0 mph 82 % 0.00 in
02:49 42.4 °F 37.3 °F 30.39 in Calm   1.2 mph 82 % 0.00 in
02:54 42.4 °F 37.3 °F 30.38 in Calm     82 % 0.00 in
03:00 42.4 °F 37.6 °F 30.38 in SSE 0.8 mph 1.2 mph 83 % 0.00 in
03:05 42.4 °F 37.3 °F 30.38 in SSE 0.5 mph 3.0 mph 82 % 0.00 in
03:10 42.4 °F 37.3 °F 30.38 in SSE 0.6 mph 2.3 mph 82 % 0.00 in
03:15 42.3 °F 37.2 °F 30.38 in SE 0.7 mph 2.3 mph 82 % 0.00 in
03:20 42.2 °F 37.1 °F 30.38 in SE 0.7 mph 2.3 mph 82 % 0.00 in
03:25 42.1 °F 37.0 °F 30.38 in Calm   1.2 mph 82 % 0.00 in
03:30 42.0 °F 36.9 °F 30.38 in SE 0.4 mph 1.2 mph 82 % 0.00 in
03:35 41.9 °F 36.8 °F 30.38 in Calm     82 % 0.00 in
03:40 41.8 °F 36.7 °F 30.38 in SE 0.1 mph 1.2 mph 82 % 0.00 in
03:45 41.6 °F 36.5 °F 30.38 in SE 0.1 mph 1.0 mph 82 % 0.00 in
03:51 41.5 °F 36.4 °F 30.38 in Calm     82 % 0.00 in
03:56 41.3 °F 36.2 °F 30.38 in Calm     82 % 0.00 in
04:01 41.1 °F 36.0 °F 30.38 in Calm     82 % 0.00 in
04:06 40.9 °F 36.1 °F 30.38 in Calm     83 % 0.00 in
04:11 40.7 °F 35.9 °F 30.38 in Calm     83 % 0.00 in
04:16 40.4 °F 35.9 °F 30.38 in Calm     84 % 0.00 in
04:21 40.2 °F 35.8 °F 30.37 in Calm     84 % 0.00 in
04:26 39.9 °F 35.5 °F 30.37 in Calm     84 % 0.00 in
04:31 39.7 °F 35.3 °F 30.37 in Calm     84 % 0.00 in
04:36 39.5 °F 35.1 °F 30.36 in Calm     84 % 0.00 in
04:42 39.2 °F 35.1 °F 30.36 in Calm     85 % 0.00 in
04:47 39.1 °F 35.0 °F 30.37 in SE 0.9 mph 1.2 mph 85 % 0.00 in
04:52 38.9 °F 35.1 °F 30.36 in Calm     86 % 0.00 in
04:57 38.8 °F 35.0 °F 30.36 in Calm     86 % 0.00 in
05:02 38.6 °F 34.8 °F 30.36 in SE 0.3 mph 1.2 mph 86 % 0.00 in
05:07 38.5 °F 34.7 °F 30.36 in Calm     86 % 0.00 in
05:12 38.4 °F 34.9 °F 30.36 in Calm   1.2 mph 87 % 0.00 in
05:17 38.3 °F 34.8 °F 30.36 in Calm     87 % 0.00 in
05:22 38.1 °F 34.6 °F 30.36 in Calm     87 % 0.00 in
05:27 38.0 °F 34.5 °F 30.36 in SE 0.8 mph 2.0 mph 87 % 0.00 in
05:33 37.9 °F 34.7 °F 30.37 in Calm   1.2 mph 88 % 0.00 in
05:38 37.7 °F 34.8 °F 30.37 in ESE 0.5 mph 2.3 mph 89 % 0.00 in
05:48 37.6 °F 34.9 °F 30.37 in ESE 0.3 mph 1.2 mph 90 % 0.00 in
05:53 37.5 °F 34.8 °F 30.36 in East 2.2 mph 3.5 mph 90 % 0.00 in
05:58 37.6 °F 35.2 °F 30.36 in East 2.5 mph 3.5 mph 91 % 0.00 in
06:03 37.7 °F 35.3 °F 30.37 in East 1.8 mph 3.5 mph 91 % 0.00 in
06:08 37.9 °F 35.5 °F 30.37 in East 1.9 mph 3.5 mph 91 % 0.00 in
06:13 38.0 °F 35.6 °F 30.37 in East 3.4 mph 4.6 mph 91 % 0.00 in
06:18 38.2 °F 35.8 °F 30.37 in East 3.5 mph 5.0 mph 91 % 0.00 in
06:24 38.3 °F 35.9 °F 30.37 in ENE 3.4 mph 3.5 mph 91 % 0.00 in
06:29 38.4 °F 35.7 °F 30.38 in East 2.2 mph 4.6 mph 90 % 0.00 in
06:34 38.4 °F 35.7 °F 30.38 in East 1.7 mph 3.5 mph 90 % 0.00 in
06:39 38.4 °F 35.7 °F 30.38 in East 1.8 mph 3.5 mph 90 % 0.00 in
06:49 38.4 °F 35.7 °F 30.38 in ENE 2.4 mph 3.5 mph 90 % 0.00 in
06:54 38.5 °F 35.8 °F 30.38 in ENE 3.3 mph 3.5 mph 90 % 0.00 in
06:59 38.7 °F 36.0 °F 30.39 in East 3.8 mph 5.8 mph 90 % 0.00 in
07:04 38.8 °F 36.1 °F 30.39 in East 3.4 mph 5.8 mph 90 % 0.00 in
07:09 38.9 °F 36.2 °F 30.39 in East 4.3 mph 6.0 mph 90 % 0.00 in
07:15 39.0 °F 36.3 °F 30.39 in East 1.1 mph 2.3 mph 90 % 0.00 in
07:20 39.1 °F 36.1 °F 30.39 in ESE 0.7 mph 3.5 mph 89 % 0.00 in
07:25 39.2 °F 36.5 °F 30.40 in East 2.5 mph 3.0 mph 90 % 0.00 in
07:30 39.3 °F 36.3 °F 30.40 in East 3.9 mph 5.8 mph 89 % 0.00 in
07:35 39.4 °F 36.4 °F 30.40 in East 2.9 mph 5.0 mph 89 % 0.00 in
07:40 39.6 °F 36.6 °F 30.40 in East 2.3 mph 3.5 mph 89 % 0.00 in
07:50 40.0 °F 37.0 °F 30.40 in ESE 1.9 mph 3.5 mph 89 % 0.00 in
07:55 40.1 °F 36.8 °F 30.39 in ESE 1.8 mph 3.5 mph 88 % 0.00 in
08:00 40.2 °F 36.9 °F 30.39 in ESE 1.6 mph 3.5 mph 88 % 0.00 in
08:06 40.4 °F 36.8 °F 30.40 in East 1.8 mph 4.6 mph 87 % 0.00 in
08:11 40.6 °F 37.3 °F 30.39 in East 2.1 mph 3.5 mph 88 % 0.00 in
08:16 40.8 °F 37.2 °F 30.39 in East 3.1 mph 5.8 mph 87 % 0.00 in
08:21 40.9 °F 37.3 °F 30.39 in ENE 3.4 mph 5.8 mph 87 % 0.00 in
08:26 41.1 °F 37.2 °F 30.40 in ESE 1.2 mph 2.3 mph 86 % 0.00 in
08:31 41.3 °F 37.4 °F 30.40 in ESE 1.8 mph 3.5 mph 86 % 0.00 in
08:36 41.5 °F 37.3 °F 30.41 in SE 2.2 mph 3.5 mph 85 % 0.00 in
08:41 41.6 °F 37.1 °F 30.41 in ESE 0.3 mph 2.3 mph 84 % 0.00 in
08:46 41.9 °F 37.7 °F 30.41 in East 2.0 mph 3.0 mph 85 % 0.00 in
08:51 42.1 °F 37.6 °F 30.41 in ENE 1.1 mph 3.5 mph 84 % 0.00 in
08:57 42.2 °F 37.7 °F 30.41 in SE 0.7 mph 3.5 mph 84 % 0.00 in
09:02 42.6 °F 38.1 °F 30.40 in ENE 1.8 mph 3.5 mph 84 % 0.00 in
09:07 42.7 °F 37.9 °F 30.40 in ENE 4.3 mph 6.9 mph 83 % 0.00 in
09:12 42.8 °F 37.7 °F 30.41 in ESE 1.7 mph 3.5 mph 82 % 0.00 in
09:17 42.9 °F 37.8 °F 30.41 in ENE 1.9 mph 6.9 mph 82 % 0.00 in
09:22 43.0 °F 37.9 °F 30.41 in ENE 4.4 mph 6.9 mph 82 % 0.00 in
09:27 43.3 °F 38.5 °F 30.40 in ENE 4.8 mph 6.9 mph 83 % 0.00 in
09:32 43.7 °F 38.6 °F 30.40 in ENE 3.1 mph 4.0 mph 82 % 0.00 in
09:37 43.8 °F 38.3 °F 30.40 in ENE 1.6 mph 3.5 mph 81 % 0.00 in
09:42 43.8 °F 38.0 °F 30.40 in ENE 1.7 mph 6.9 mph 80 % 0.00 in
09:48 43.7 °F 37.9 °F 30.40 in ENE 6.4 mph 8.1 mph 80 % 0.00 in
09:53 43.7 °F 38.3 °F 30.40 in ENE 5.3 mph 8.1 mph 81 % 0.00 in
09:58 43.6 °F 37.8 °F 30.40 in ENE 3.4 mph 5.8 mph 80 % 0.00 in
10:03 43.5 °F 37.7 °F 30.40 in NE 4.0 mph 9.2 mph 80 % 0.00 in
10:08 43.5 °F 37.7 °F 30.40 in NE 5.1 mph 8.1 mph 80 % 0.00 in
10:13 43.6 °F 37.8 °F 30.40 in ENE 4.4 mph 9.2 mph 80 % 0.00 in
10:18 43.5 °F 38.1 °F 30.40 in ENE 5.8 mph 8.1 mph 81 % 0.00 in
10:23 43.4 °F 38.0 °F 30.39 in ENE 4.4 mph 7.0 mph 81 % 0.00 in
10:28 43.8 °F 38.3 °F 30.39 in NE 4.8 mph 9.2 mph 81 % 0.00 in
10:33 44.3 °F 38.5 °F 30.39 in ENE 6.1 mph 8.0 mph 80 % 0.00 in
10:39 44.2 °F 38.1 °F 30.38 in ENE 7.0 mph 10.4 mph 79 % 0.00 in
10:44 44.5 °F 38.7 °F 30.39 in NE 7.7 mph 9.2 mph 80 % 0.00 in
10:49 44.7 °F 38.9 °F 30.39 in East 3.7 mph 8.1 mph 80 % 0.00 in
10:54 45.0 °F 38.6 °F 30.39 in NE 8.1 mph 11.5 mph 78 % 0.00 in
10:59 45.1 °F 38.6 °F 30.39 in NE 7.8 mph 10.4 mph 78 % 0.00 in
11:04 45.0 °F 38.6 °F 30.39 in East 6.8 mph 10.4 mph 78 % 0.00 in
11:09 44.6 °F 37.8 °F 30.39 in ENE 8.7 mph 10.4 mph 77 % 0.00 in
11:14 44.6 °F 38.8 °F 30.39 in ENE 4.7 mph 6.9 mph 80 % 0.00 in
11:19 45.1 °F 38.6 °F 30.38 in NE 7.9 mph 11.0 mph 78 % 0.00 in
11:24 45.2 °F 39.1 °F 30.38 in ENE 6.0 mph 10.4 mph 79 % 0.00 in
11:30 45.6 °F 38.8 °F 30.38 in ENE 8.7 mph 10.0 mph 77 % 0.00 in
11:35 45.3 °F 38.5 °F 30.37 in ENE 7.1 mph 12.0 mph 77 % 0.00 in
11:40 45.3 °F 38.8 °F 30.38 in East 7.1 mph 10.4 mph 78 % 0.00 in
11:45 45.5 °F 39.0 °F 30.38 in ENE 8.1 mph 11.0 mph 78 % 0.00 in
11:50 45.3 °F 38.8 °F 30.38 in ENE 7.6 mph 11.5 mph 78 % 0.00 in
11:55 45.0 °F 38.6 °F 30.37 in NE 6.8 mph 10.4 mph 78 % 0.00 in
12:00 45.5 °F 39.7 °F 30.37 in ENE 7.3 mph 11.0 mph 80 % 0.00 in
12:05 45.6 °F 39.5 °F 30.36 in ENE 7.3 mph 9.2 mph 79 % 0.00 in
12:10 46.3 °F 40.5 °F 30.36 in ENE 5.1 mph 10.4 mph 80 % 0.00 in
12:15 46.4 °F 39.6 °F 30.37 in ENE 6.4 mph 11.5 mph 77 % 0.00 in
12:21 46.3 °F 39.8 °F 30.37 in ENE 5.6 mph 9.2 mph 78 % 0.00 in
12:26 45.9 °F 39.1 °F 30.37 in ENE 4.6 mph 10.4 mph 77 % 0.00 in
12:31 46.0 °F 39.5 °F 30.37 in ENE 6.8 mph 9.2 mph 78 % 0.00 in
12:36 46.1 °F 39.3 °F 30.37 in ENE 8.2 mph 11.5 mph 77 % 0.00 in
12:41 46.1 °F 39.3 °F 30.36 in ENE 5.5 mph 10.4 mph 77 % 0.00 in
12:46 46.1 °F 39.3 °F 30.36 in East 8.1 mph 10.4 mph 77 % 0.00 in
12:51 45.7 °F 38.9 °F 30.35 in ENE 7.9 mph 10.4 mph 77 % 0.00 in
12:56 45.8 °F 39.7 °F 30.36 in ENE 5.1 mph 8.1 mph 79 % 0.00 in
13:01 45.9 °F 38.8 °F 30.36 in NNE 6.1 mph 11.5 mph 76 % 0.00 in
13:06 45.4 °F 38.6 °F 30.36 in ENE 8.7 mph 11.0 mph 77 % 0.00 in
13:12 45.7 °F 39.6 °F 30.36 in ENE 5.5 mph 6.9 mph 79 % 0.00 in
13:17 45.8 °F 39.0 °F 30.36 in ENE 7.3 mph 9.2 mph 77 % 0.00 in
13:22 45.7 °F 39.2 °F 30.36 in NE 4.8 mph 8.1 mph 78 % 0.00 in
13:27 45.6 °F 38.8 °F 30.36 in NE 4.6 mph 6.9 mph 77 % 0.00 in
13:32 45.6 °F 38.8 °F 30.36 in ENE 3.4 mph 5.8 mph 77 % 0.00 in
13:37 45.7 °F 38.9 °F 30.35 in NNE 3.7 mph 9.2 mph 77 % 0.00 in
13:42 45.5 °F 38.4 °F 30.35 in East 6.7 mph 10.4 mph 76 % 0.00 in
13:47 45.4 °F 38.9 °F 30.35 in ENE 5.4 mph 8.1 mph 78 % 0.00 in
13:52 45.1 °F 38.6 °F 30.35 in ENE 5.9 mph 6.9 mph 78 % 0.00 in
13:57 44.8 °F 38.4 °F 30.34 in ENE 5.2 mph 9.2 mph 78 % 0.00 in
14:03 44.7 °F 38.3 °F 30.34 in East 6.7 mph 9.2 mph 78 % 0.00 in
14:08 44.8 °F 38.7 °F 30.33 in ENE 5.0 mph 9.2 mph 79 % 0.00 in
14:13 44.9 °F 38.5 °F 30.34 in ENE 6.4 mph 10.4 mph 78 % 0.00 in
14:18 44.8 °F 38.4 °F 30.33 in NE 8.1 mph 9.2 mph 78 % 0.00 in
14:23 44.7 °F 38.9 °F 30.33 in ENE 5.5 mph 7.0 mph 80 % 0.00 in
14:28 44.9 °F 38.8 °F 30.33 in ENE 7.3 mph 10.0 mph 79 % 0.00 in
14:33 44.9 °F 38.8 °F 30.32 in East 7.0 mph 11.5 mph 79 % 0.00 in
14:38 45.1 °F 39.3 °F 30.32 in ENE 5.9 mph 8.1 mph 80 % 0.00 in
14:43 45.1 °F 39.3 °F 30.31 in ENE 6.7 mph 10.0 mph 80 % 0.00 in
14:48 45.2 °F 39.1 °F 30.31 in ENE 6.0 mph 9.2 mph 79 % 0.00 in
14:54 45.1 °F 39.0 °F 30.31 in NE 6.9 mph 10.4 mph 79 % 0.00 in
14:59 45.0 °F 38.9 °F 30.31 in ENE 5.8 mph 8.1 mph 79 % 0.00 in
15:04 45.2 °F 39.7 °F 30.31 in East 4.9 mph 7.0 mph 81 % 0.00 in
15:09 45.6 °F 39.5 °F 30.31 in ENE 5.6 mph 9.2 mph 79 % 0.00 in
15:14 45.5 °F 39.4 °F 30.30 in ENE 5.0 mph 8.1 mph 79 % 0.00 in
15:24 45.8 °F 39.7 °F 30.29 in ENE 6.7 mph 11.0 mph 79 % 0.00 in
15:29 45.6 °F 39.5 °F 30.28 in ENE 8.4 mph 11.5 mph 79 % 0.00 in
15:34 45.2 °F 39.4 °F 30.29 in ENE 8.7 mph 10.4 mph 80 % 0.00 in
15:40 45.0 °F 39.5 °F 30.28 in ENE 7.0 mph 9.0 mph 81 % 0.00 in
15:45 45.0 °F 39.2 °F 30.29 in ENE 8.6 mph 10.4 mph 80 % 0.00 in
15:50 45.0 °F 39.5 °F 30.28 in ENE 5.8 mph 9.2 mph 81 % 0.00 in
15:55 45.0 °F 39.5 °F 30.28 in ENE 7.7 mph 10.4 mph 81 % 0.00 in
16:00 45.0 °F 39.8 °F 30.28 in East 5.3 mph 8.1 mph 82 % 0.00 in
16:05 45.3 °F 39.8 °F 30.27 in ENE 5.5 mph 10.0 mph 81 % 0.00 in
16:10 45.4 °F 39.9 °F 30.27 in East 4.8 mph 6.9 mph 81 % 0.00 in
16:15 45.6 °F 40.1 °F 30.27 in East 5.2 mph 8.1 mph 81 % 0.00 in
16:25 46.0 °F 40.2 °F 30.27 in ENE 3.9 mph 7.0 mph 80 % 0.00 in
16:31 46.3 °F 40.8 °F 30.27 in ENE 3.8 mph 5.8 mph 81 % 0.00 in
16:36 46.4 °F 40.6 °F 30.27 in ENE 4.5 mph 5.8 mph 80 % 0.00 in
16:41 46.5 °F 40.7 °F 30.27 in East 2.8 mph 5.0 mph 80 % 0.00 in
16:46 46.6 °F 40.8 °F 30.27 in East 3.5 mph 4.6 mph 80 % 0.00 in
16:51 46.8 °F 40.3 °F 30.27 in SSE 2.5 mph 9.2 mph 78 % 0.00 in
16:56 47.1 °F 39.9 °F 30.26 in SE 0.2 mph 3.5 mph 76 % 0.00 in
17:01 47.4 °F 39.9 °F 30.26 in SSE 3.5 mph 6.9 mph 75 % 0.00 in
17:06 47.6 °F 39.7 °F 30.26 in SSE 4.2 mph 6.9 mph 74 % 0.00 in
17:11 47.7 °F 39.8 °F 30.26 in SE 1.9 mph 3.5 mph 74 % 0.00 in
17:16 47.7 °F 39.8 °F 30.26 in SSE 5.3 mph 8.0 mph 74 % 0.00 in
17:22 47.6 °F 39.4 °F 30.25 in SE 4.2 mph 5.8 mph 73 % 0.00 in
17:27 47.5 °F 39.3 °F 30.25 in South 4.1 mph 6.9 mph 73 % 0.00 in
17:32 47.2 °F 39.3 °F 30.25 in SSW 2.2 mph 4.6 mph 74 % 0.00 in
17:37 47.2 °F 39.3 °F 30.25 in SSW 3.7 mph 6.9 mph 74 % 0.00 in
17:42 47.1 °F 39.2 °F 30.25 in SE 5.3 mph 8.1 mph 74 % 0.00 in
17:47 46.9 °F 39.0 °F 30.26 in SSE 3.4 mph 7.0 mph 74 % 0.00 in
17:52 46.7 °F 39.2 °F 30.26 in SSE 2.1 mph 5.8 mph 75 % 0.00 in
17:57 46.5 °F 39.0 °F 30.25 in South 3.7 mph 8.0 mph 75 % 0.00 in
18:02 46.3 °F 38.8 °F 30.25 in South 4.2 mph 8.1 mph 75 % 0.00 in
18:07 46.1 °F 38.6 °F 30.25 in SSE 4.0 mph 6.9 mph 75 % 0.00 in
18:13 45.9 °F 38.4 °F 30.25 in SSE 4.4 mph 8.1 mph 75 % 0.00 in
18:18 45.7 °F 38.6 °F 30.25 in SSE 2.8 mph 6.0 mph 76 % 0.00 in
18:23 45.5 °F 38.4 °F 30.24 in South 2.9 mph 5.8 mph 76 % 0.00 in
18:28 45.2 °F 38.1 °F 30.24 in South 2.0 mph 3.5 mph 76 % 0.00 in
18:33 44.9 °F 38.1 °F 30.24 in SSE 3.1 mph 4.6 mph 77 % 0.00 in
18:38 44.7 °F 37.9 °F 30.24 in SSE 2.3 mph 4.0 mph 77 % 0.00 in
18:43 44.6 °F 38.2 °F 30.24 in SE 4.4 mph 5.8 mph 78 % 0.00 in
18:48 44.5 °F 38.1 °F 30.24 in SSE 3.1 mph 5.0 mph 78 % 0.00 in
18:53 44.4 °F 38.0 °F 30.24 in South 2.6 mph 4.0 mph 78 % 0.00 in
18:58 44.2 °F 38.1 °F 30.25 in SSE 1.2 mph 2.3 mph 79 % 0.00 in
19:04 44.1 °F 38.0 °F 30.24 in SSE 3.8 mph 5.0 mph 79 % 0.00 in
19:09 43.8 °F 37.7 °F 30.24 in SSE 0.7 mph 3.5 mph 79 % 0.00 in
19:14 43.6 °F 37.8 °F 30.24 in SSE 0.8 mph 8.1 mph 80 % 0.00 in
19:19 43.3 °F 37.5 °F 30.24 in SE 1.7 mph 3.5 mph 80 % 0.00 in
19:24 43.1 °F 37.7 °F 30.24 in SSE 4.1 mph 6.0 mph 81 % 0.00 in
19:34 42.7 °F 37.3 °F 30.24 in South 2.3 mph 3.5 mph 81 % 0.00 in
19:39 42.6 °F 37.5 °F 30.24 in SE 1.8 mph 3.5 mph 82 % 0.00 in
19:44 42.5 °F 37.4 °F 30.24 in SSE 1.2 mph 3.5 mph 82 % 0.00 in
19:49 42.4 °F 37.3 °F 30.24 in SSE 1.3 mph 2.3 mph 82 % 0.00 in
19:55 42.3 °F 37.2 °F 30.24 in Calm   1.2 mph 82 % 0.00 in
20:00 42.2 °F 37.1 °F 30.24 in Calm     82 % 0.00 in
20:05 42.1 °F 37.0 °F 30.24 in SSE 0.4 mph 1.2 mph 82 % 0.00 in
20:10 41.9 °F 37.1 °F 30.24 in ESE 1.0 mph 3.5 mph 83 % 0.00 in
20:15 41.8 °F 37.0 °F 30.24 in ESE 0.1 mph 1.2 mph 83 % 0.00 in
20:20 41.6 °F 36.8 °F 30.23 in ESE 0.6 mph 2.3 mph 83 % 0.00 in
20:25 41.5 °F 37.0 °F 30.24 in ESE 0.2 mph 1.2 mph 84 % 0.00 in
20:30 41.5 °F 37.0 °F 30.23 in ESE 1.7 mph 3.0 mph 84 % 0.00 in
20:35 41.5 °F 37.0 °F 30.23 in SSE 0.3 mph 1.2 mph 84 % 0.00 in
20:40 41.5 °F 37.3 °F 30.23 in SSE 0.5 mph 2.3 mph 85 % 0.00 in
20:46 41.6 °F 37.4 °F 30.23 in SE 0.6 mph 1.2 mph 85 % 0.00 in
20:51 41.6 °F 37.4 °F 30.22 in SE 0.4 mph 2.3 mph 85 % 0.00 in
20:56 41.7 °F 37.5 °F 30.22 in SE 0.5 mph 2.0 mph 85 % 0.00 in
21:01 41.8 °F 37.6 °F 30.22 in SE 1.3 mph 2.3 mph 85 % 0.00 in
21:06 41.8 °F 37.6 °F 30.22 in ESE 1.2 mph 2.3 mph 85 % 0.00 in
21:11 41.9 °F 37.7 °F 30.22 in ESE 1.4 mph 3.5 mph 85 % 0.00 in
21:16 42.0 °F 37.8 °F 30.22 in ESE 1.1 mph 3.5 mph 85 % 0.00 in
21:21 42.0 °F 37.8 °F 30.22 in ESE 0.2 mph 1.2 mph 85 % 0.00 in
21:26 42.0 °F 37.8 °F 30.22 in ESE 0.2 mph 1.2 mph 85 % 0.00 in
21:31 42.1 °F 37.9 °F 30.22 in East 2.1 mph 3.5 mph 85 % 0.00 in
21:37 42.2 °F 38.0 °F 30.21 in SE 1.1 mph 2.3 mph 85 % 0.00 in
21:42 42.2 °F 38.0 °F 30.21 in SE 2.8 mph 5.0 mph 85 % 0.00 in
21:47 42.3 °F 38.1 °F 30.22 in SSE 2.7 mph 3.5 mph 85 % 0.00 in
21:52 42.3 °F 38.1 °F 30.21 in SE 0.5 mph 2.3 mph 85 % 0.00 in
21:57 42.4 °F 38.2 °F 30.21 in SE 0.3 mph 1.2 mph 85 % 0.00 in
22:02 42.4 °F 38.2 °F 30.20 in East 3.3 mph 5.8 mph 85 % 0.00 in
22:07 42.4 °F 38.2 °F 30.20 in SE 2.0 mph 3.5 mph 85 % 0.00 in
22:12 42.5 °F 38.3 °F 30.20 in ESE 1.3 mph 2.3 mph 85 % 0.00 in
22:17 42.5 °F 38.3 °F 30.20 in East 1.4 mph 2.3 mph 85 % 0.00 in
22:22 42.5 °F 38.3 °F 30.20 in East 1.9 mph 4.6 mph 85 % 0.00 in
22:28 42.5 °F 38.3 °F 30.19 in East 0.8 mph 3.5 mph 85 % 0.00 in
22:33 42.6 °F 38.4 °F 30.19 in East 1.5 mph 4.6 mph 85 % 0.00 in
22:38 42.6 °F 38.4 °F 30.19 in East 1.9 mph 3.5 mph 85 % 0.00 in
22:43 42.6 °F 38.4 °F 30.19 in East 2.2 mph 4.6 mph 85 % 0.00 in
22:48 42.6 °F 38.4 °F 30.18 in East 1.0 mph 3.5 mph 85 % 0.00 in
22:53 42.6 °F 38.4 °F 30.18 in East 2.6 mph 5.0 mph 85 % 0.00 in
22:58 42.6 °F 38.4 °F 30.18 in East 1.2 mph 2.3 mph 85 % 0.00 in
23:03 42.6 °F 38.4 °F 30.17 in East 0.6 mph 2.3 mph 85 % 0.00 in
23:08 42.6 °F 38.4 °F 30.17 in East 0.8 mph 2.3 mph 85 % 0.00 in
23:13 42.7 °F 38.5 °F 30.17 in East 1.4 mph 2.3 mph 85 % 0.00 in
23:19 42.7 °F 38.5 °F 30.17 in East 0.5 mph 1.2 mph 85 % 0.00 in
23:29 42.7 °F 38.5 °F 30.16 in East 1.6 mph 3.5 mph 85 % 0.00 in
23:34 42.8 °F 38.6 °F 30.16 in East 2.3 mph 3.5 mph 85 % 0.00 in
23:39 42.8 °F 38.6 °F 30.16 in ENE 2.1 mph 3.5 mph 85 % 0.00 in
23:44 42.8 °F 38.6 °F 30.15 in ENE 1.9 mph 3.5 mph 85 % 0.00 in
23:49 42.9 °F 39.0 °F 30.15 in East 3.0 mph 5.0 mph 86 % 0.00 in
23:54 42.9 °F 39.0 °F 30.15 in East 3.5 mph 5.8 mph 86 % 0.00 in
23:59 42.9 °F 38.7 °F 30.15 in East 2.9 mph 4.6 mph 85 % 0.00 in
Crab Meadow Weather
Compliments of Weather Underground - 2.75 mb

Script developed by  Jim McMurry - jmcmurry@mwt.net Adapted for the template by  Wim van der Kuil - Leuven-Template.eu

Extremes: In Wyndham, Australia, the temperature reached 90 degrees F for 333 days in 1946.